DELTA 1 DEB, 21277

Orbit data source: Space-Track

DELTA 1 DEB, 21277 is space debris in SSO originally from a launch on Thu, 12 Jun 1975 UTC launched from the Air Force Western Test Range (AFWTR). Debris objects in space refer to the collection of defunct objects orbiting the Earth. Examples of debris include non-operational satellites, rocket bodies, and fragments generated from explosions, collisions, or faulty payload assembly.

Loading next visibility...
Identifier
21277, 1975-052N
Orbit
SSO
Country
Flag of USUS
Related business
Manufacturer
Unknown
Mission
Spacecraft
Bus & Motor
Unknown
Mass
Unknown
Launch date (UTC)
1975-06-12 (50 years ago)
Launch vehicle
Unknown
Launch site
Air Force Western Test Range (AFWTR)
Object type
Payload
Rocket body
Debris
Shape & HBR
Unknown shape, 0.4 m
Radar Cross Section
Medium (>0.1 m² and <1 m²)

Expand to show TLE details & history
Last TLE update: 12 hours ago

TLE from 12 hours ago
0 DELTA 1 DEB
1 21277U 75052N   25309.14609822  .00000098  00000-0  33083-3 0  9996
2 21277  99.7173  94.2293 0132935  33.1162 141.9654 13.19189822660449
Epoch: 2025-11-05T03:30Z
TLE epoch observation values (Epoch: 2025-11-05T03:30:22.886Z)
Latitude
3.84757°
Longitude
177.66756°
Altitude
1,269.876 km
Speed
7.183 km/s
True Right ascension
18h 19m 32s
True Declination
3° 49' 34"
Sunlit
Object was in daylight at epoch
Visualization orbit readout
Latitude
Unknown
Longitude
Unknown
Altitude
Unknown
Speed
Unknown
Apparent Right ascension
Unknown
Apparent Declination
Unknown
Sunlit
N/A
Visualization observer readout
Local Sidereal Time
11:41:22
Azimuth
Unknown
Elevation
Unknown
Doppler factor
Unknown
Orbital elements
Apogee altitude
1,285.702 km
Perigee altitude
1,084.616 km
Semi-major axis
7,563.296 km
Eccentricity
0.01329
Inclination
99.7173°
RAAN
94.2293°
Arg. of periapsis
33.1162°
True anomaly
142.8918°
Mean anomaly
141.9654°
Eccentric anomaly
142.42981°
Mean motion
3.29972 °/min
Orbital period
109.1 mins
BSTAR
0.00033083
Loading maneuver chart data...
Computing Atmospheric mass density...
Loading historical data...
Loading historical data...
Loading historical data...
Loading historical data...
Loading historical data...
Loading historical data...
Loading historical data...

Documentation

Showing up to 5 results
|